{"data":{"norad_id":58009,"epoch":"2026-05-24T23:05:42.524736Z","epoch_age_seconds":74732,"freshness":"FRESH","line1":"1 58009U 23153U   26144.96229774  .00007224  00000+0  27165-3 0  9997","line2":"2 58009  43.0040 356.0950 0001474 276.2350  83.8334 15.27594778146469","mean_motion":15.27594778,"eccentricity":0.0001474,"inclination_deg":43.004,"raan_deg":356.095,"arg_perigee_deg":276.235,"mean_anomaly_deg":83.8334,"bstar":0.00027165,"rev_number":14646,"period_min":94.265836774155,"perigee_km":481.99351343997,"apogee_km":484.01617805609,"semimajor_km":6861.141845748,"source":"CELESTRAK","updated_at":"2026-05-25T13:38:18.493007Z"}}